Starlink 5802

operational
NORAD ID: 56552 Int'l Des: 2023-065 Owner: SPXS Country: US Constellation: starlink
LEOCIRCULAR

Starlink 5802について

説明を読み込み中...

リアルタイム位置

3D地球を読み込み中...

次回通過

高度履歴

Altitude vs Time

uPlot chart will show altitude changes over time

軌道要素

1 56552U 23065BB 26062.16668981 .00026401 00000-0 17541-2 0 9993
2 56552 42.9999 258.4402 0000897 301.5785 205.5920 15.06727621 5819
Epoch: Mar 3, 2026 • Age: 18 hours

現在のステータス

高度 549.8 km
速度 7.59 km/s
衛星直下点 43.15°N, 86.09°W
打ち上げ日 May 14, 2023
運用期間 2.8 years
タイプ internet

技術仕様

分類 Payload
質量 305.00 kg
乾燥質量 290.00 kg
総質量 305.00 kg
長さ 0.20 m
直径 2.80 m
スパン 9.00 m
形状 Box + pan
製造者 SPXS
バスタイプ Starlink
フェーズステータス In Orbit
所有者/国 SPXS/US

大規模コンステレーション

Loading constellations...